This is the latest recevied weather packets stored in our database for station/object AB0TJ. If no packets are shown the sender has not sent any weather packets the latest 1 day(s).
| Time | Temp. | Humidity | Pressure | Rain* | Wind** | Luminosity | Snow |
|---|---|---|---|---|---|---|---|
| 1778034349 | 15° C | 42% | 1007.5 hPa | 0 mm | 2.24 m/s, 296° | 0 W/m² | - |
| 1778033752 | 15° C | 41% | 1007.2 hPa | 0 mm | 3.58 m/s, 313° | 1 W/m² | - |
| 1778033232 | 15° C | 40% | 1007.2 hPa | 0 mm | 2.24 m/s, 311° | 3 W/m² | - |
| 1778032732 | 15.56° C | 39% | 1007 hPa | 0 mm | 2.68 m/s, 312° | 5 W/m² | - |
| 1778032149 | 15.56° C | 37% | 1006.7 hPa | 0 mm | 3.13 m/s, 293° | 10 W/m² | - |
| 1778031592 | 16.11° C | 37% | 1006.5 hPa | 0 mm | 1.79 m/s, 290° | 17 W/m² | - |
| 1778031092 | 16.11° C | 37% | 1006.3 hPa | 0 mm | 2.24 m/s, 272° | 30 W/m² | - |
| 1778030499 | 16.67° C | 35% | 1006 hPa | 0 mm | 2.68 m/s, 279° | 39 W/m² | - |
| 1778029952 | 16.67° C | 34% | 1006 hPa | 0 mm | 3.58 m/s, 316° | 44 W/m² | - |
| 1778029409 | 17.22° C | 34% | 1005.5 hPa | 0 mm | 4.47 m/s, 281° | 71 W/m² | - |
| 1778028884 | 17.78° C | 34% | 1005.5 hPa | 0 mm | 3.13 m/s, 291° | 72 W/m² | - |
| 1778028333 | 18.33° C | 33% | 1005.2 hPa | 0 mm | 4.47 m/s, 286° | 72 W/m² | - |
| 1778027792 | 18.89° C | 28% | 1005 hPa | 0 mm | 3.13 m/s, 288° | 81 W/m² | - |
| 1778027269 | 18.89° C | 29% | 1004.8 hPa | 0 mm | 3.58 m/s, 330° | 93 W/m² | - |
| 1778026779 | 18.89° C | 29% | 1004.5 hPa | 0 mm | 6.26 m/s, 298° | 98 W/m² | - |
| 1778026293 | 19.44° C | 28% | 1004.4 hPa | 0 mm | 6.26 m/s, 307° | 122 W/m² | - |
| 1778025772 | 20.56° C | 26% | 1004.5 hPa | 0 mm | 6.26 m/s, 297° | 147 W/m² | - |
| 1778025272 | 21.67° C | 22% | 1004.1 hPa | 0 mm | 4.47 m/s, 303° | 185 W/m² | - |
| 1778024789 | 22.22° C | 11% | 1004 hPa | 0 mm | 2.68 m/s, 269° | 186 W/m² | - |
| 1778024274 | 22.78° C | 11% | 1003.9 hPa | 0 mm | 2.24 m/s, 294° | 174 W/m² | - |
| 1778023729 | 22.78° C | 10% | 1004 hPa | 0 mm | 3.58 m/s, 261° | 375 W/m² | - |
| 1778023193 | 22.78° C | 13% | 1004.1 hPa | 0 mm | 2.68 m/s, 284° | 461 W/m² | - |
| 1778022639 | 22.78° C | 12% | 1004 hPa | 0 mm | 2.68 m/s, 288° | 425 W/m² | - |
| 1778022104 | 22.78° C | 12% | 1004.2 hPa | 0 mm | 4.92 m/s, 313° | 370 W/m² | - |
| 1778021604 | 22.78° C | 11% | 1004 hPa | 0 mm | 3.58 m/s, 300° | 522 W/m² | - |
* Rain latest hour (hover to see other rain measurements)
** Current wind speed in m/s (hover to see current wind gust speed)